Location: De Greiden
(52.9496°N, 5.9137°E)
Time: 01:57:40
(UTC+00:00)

Cosmos 2227 Rocket - Pass Details

Date: 24 January 2021
Orbit: 837 x 846 km, 71.0° (Epoch: 26 February)

Event Time Altitude Azimuth Distance (km) Brightness Sun altitude
Rises 18:51:18 0° 302° (WNW) 3,414 6.3 -24.5°
Reaches altitude 10° 18:55:27 10° 332° (NNW) 2,480 5.0 -25.1°
Maximum altitude 18:57:49 13° 356° (N) 2,305 4.5 -25.4°
Enters shadow 18:59:23 11° 13° (NNE) 2,386 4.4 -25.7°
